Weather History for Nassau, Bahamas

Change the Weather History Date:

Monday, February 25, 2013

  Actual Average Record
Temperature  
Mean Temperature 77 °F -  
Max Temperature 82 °F 80 °F 87 °F (2012)
Min Temperature 72 °F 64 °F 59 °F (1998)
Cooling Degree Days 12    
Growing Degree Days 27 (Base 50)    
Moisture  
Dew Point 70 °F    
Average Humidity 76    
Maximum Humidity 94    
Minimum Humidity 54    
Precipitation  
Precipitation 0.00 in 0.05 in - ()
Sea Level Pressure  
Sea Level Pressure 29.93 in    
Wind  
Wind Speed 4 mph ()    
Max Wind Speed 12 mph    
Max Gust Speed -    
Visibility 6.8 miles    
Events      
Averages and records for this station are not official NWS values.
T = Trace of Precipitation, MM = Missing Value Source: Averaged Metar Reports

Daily Weather History Graph

Daily Weather History Graph

Search for Another Location

Airport:

Trip Planner

Search our weather history database for the weather conditions in past years. The results will help you decide how hot, cold, wet, or windy it might be!

Date:

Astronomy

Feb. 25, 2013 Rise Set
Actual Time 6:35 AM EST 6:10 PM EST
Civil Twilight 6:12 AM EST 6:33 PM EST
Nautical Twilight 5:46 AM EST 6:59 PM EST
Astronomical Twilight 5:19 AM EST 7:26 PM EST
Moon 6:14 PM EST 6:08 AM EST
Length of Visible Light 12h 20m
Length of Day
11h 34m
Full, 100% of the Moon is Illuminated
Feb 25
Full
Feb 25
Full
Mar 4
Last Quarter
Mar 11
New
Mar 19
First Quarter

Hourly Weather History & Observations

Time (EST) Temp. Heat Index Dew Point Humidity Pressure Visibility Wind Dir Wind Speed Gust Speed Precip Events Conditions
12:00 AM - - - N/A% 29.97 in 6.2 mi Calm Calm - N/A   Scattered Clouds
1:00 AM 75.2 °F - 71.6 °F 89% 29.93 in 6.2 mi Calm Calm - N/A   Scattered Clouds
2:00 AM 73.4 °F - 71.6 °F 94% 29.94 in 6.2 mi Calm Calm - N/A   Scattered Clouds
3:00 AM 73.4 °F - 71.6 °F 94% 29.92 in 6.2 mi Calm Calm - N/A   Scattered Clouds
4:00 AM 73 °F - 70 °F 86% 29.91 in 8 mi SE 1.2 mph - -   Partly Cloudy
4:00 AM - - - N/A% 29.91 in 6.2 mi SE 1.2 mph - N/A   Scattered Clouds
5:00 AM - - - N/A% 29.90 in 6.2 mi ESE 5.8 mph - N/A   Scattered Clouds
6:00 AM - - - N/A% 29.91 in 6.2 mi SE 5.8 mph - N/A   Scattered Clouds
7:00 AM 74 °F - 71 °F 88% 29.93 in 8 mi ESE 4.6 mph - -   Scattered Clouds
7:00 AM - - - N/A% 29.93 in 6.2 mi ESE 4.6 mph - N/A   Mostly Cloudy
8:00 AM 75.2 °F - 69.8 °F 83% 29.95 in 6.2 mi East 6.9 mph - N/A   Scattered Clouds
9:00 AM 77.0 °F - 69.8 °F 78% 29.96 in 6.2 mi SE 9.2 mph - N/A   Scattered Clouds
10:00 AM 80 °F - 70 °F 64% 29.97 in 9 mi SE 10.4 mph - -   Partly Cloudy
10:00 AM 80.6 °F 83.9 °F 69.8 °F 70% 29.96 in 6.2 mi SE 10.4 mph - N/A   Scattered Clouds
11:00 AM 78.8 °F - 69.8 °F 74% 29.97 in 6.2 mi SE 11.5 mph - N/A   Scattered Clouds
1:00 PM 82 °F - 69 °F 57% 29.92 in 9 mi South 10.4 mph - -   Partly Cloudy
1:00 PM 82.4 °F 86.3 °F 69.8 °F 66% 29.92 in 6.2 mi South 10.4 mph - N/A   Scattered Clouds
2:00 PM 80.6 °F 83.2 °F 68.0 °F 65% 29.91 in 6.2 mi South 10.4 mph - N/A   Scattered Clouds
3:00 PM 80.6 °F 83.2 °F 68.0 °F 65% 29.90 in 6.2 mi SSE 10.4 mph - N/A   Scattered Clouds
4:00 PM 83 °F - 69 °F 54% 29.89 in 9 mi SSE 9.2 mph - -   Scattered Clouds
4:00 PM 82.4 °F 86.3 °F 69.8 °F 66% 29.89 in 6.2 mi SSE 9.2 mph - N/A   Partly Cloudy
5:00 PM 78.8 °F - 69.8 °F 74% 29.89 in 6.2 mi SSE 6.9 mph - N/A   Partly Cloudy
6:00 PM 77.0 °F - 69.8 °F 78% 29.91 in 6.2 mi SE 4.6 mph - N/A   Partly Cloudy
7:00 PM 77 °F - 70 °F 73% 29.92 in 9 mi SE 3.5 mph - -   Scattered Clouds
7:00 PM 77.0 °F - 69.8 °F 78% 29.91 in 6.2 mi SE 3.5 mph - N/A   Scattered Clouds
8:00 PM 75.2 °F - 69.8 °F 83% 29.92 in 6.2 mi SE 4.6 mph - N/A   Scattered Clouds
9:00 PM 75.2 °F - 69.8 °F 83% 29.93 in 6.2 mi SE 4.6 mph - N/A   Partly Cloudy
10:00 PM 76 °F - 70 °F 78% 29.95 in 9 mi SE 5.8 mph - -   Scattered Clouds
10:00 PM 75.2 °F - 69.8 °F 83% 29.94 in 6.2 mi SE 5.8 mph - N/A   Partly Cloudy
11:00 PM 75.2 °F - 69.8 °F 83% 29.95 in 6.2 mi SE 6.9 mph - N/A   Partly Cloudy